Location: Castelnau
(43.6639°N, 0.8431°W)
Time: 17:21:15
(UTC+00:00)

ARIANE 6 FM1 Upper Stage - Pass Details

Date: 13 January 2026
Orbit: 522 x 609 km, 62.0° (Epoch: 11 February)

Event Time Altitude Azimuth Distance (km) Brightness Sun altitude
Exits shadow 06:49:15 11° 292° (WNW) 1,726 4.4 -8.3°
Maximum altitude 06:52:11 22° 242° (WSW) 1,197 4.0 -7.8°
Drops below altitude 10° 06:55:18 10° 191° (S) 1,788 5.4 -7.3°
Sets 06:57:52 0° 176° (S) 2,690 6.5 -6.8°
